When you browse on this site, cookies collect data to enhance your experience and personalize the content and advertising you see.
Visit our Privacy Policy to learn more. By continuing to use the site, you agree to this use of cookies and data.
  • In Switzerland
  • List of Countries
  • For 7 days
  • Water Temperature
  • Weather Map
  • Weather Widgets
  • user-avatar
    Login

    Hourly Weather Luchki

    Today, 21 August, Wednesday

    Time Temperature Precipitation Wind Pressure Humidity
    00:00 +18°C° 0 mm 0 mps 750 mmHg 75%
    01:00 +18°C° 0 mm 0 mps 750 mmHg 76%
    02:00 +18°C° 0 mm 0 mps 751 mmHg 77%
    03:00 +20°C° 0 mm 1 mps 751 mmHg 78%
    04:00 +20°C° 0 mm 1 mps 751 mmHg 79%
    05:00 +19°C° 0 mm 1 mps 751 mmHg 80%
    06:00 +19°C° 0 mm 1 mps 751 mmHg 80%
    07:00 +21°C° 0 mm 1 mps 751 mmHg 76%
    08:00 +23°C° 0 mm 1 mps 751 mmHg 71%
    09:00 +24°C° 0 mm 1 mps 751 mmHg 66%
    10:00 +25°C° 0 mm 1 mps 751 mmHg 63%
    11:00 +26°C° 0 mm 1 mps 751 mmHg 60%
    12:00 +27°C° 0 mm 2 mps 751 mmHg 57%
    13:00 +28°C° 0 mm 2 mps 751 mmHg 56%
    14:00 +28°C° 0 mm 2 mps 751 mmHg 54%
    15:00 +29°C° 0 mm 2 mps 751 mmHg 52%
    16:00 +28°C° 0 mm 2 mps 750 mmHg 56%
    17:00 +28°C° 0 mm 2 mps 750 mmHg 59%
    18:00 +28°C° 0 mm 2 mps 750 mmHg 63%
    19:00 +26°C° 0 mm 2 mps 750 mmHg 67%
    20:00 +25°C° 0 mm 2 mps 750 mmHg 71%
    21:00 +23°C° 0 mm 2 mps 750 mmHg 75%
    22:00 +23°C° 0 mm 1 mps 750 mmHg 77%
    23:00 +22°C° 0 mm 1 mps 750 mmHg 80%

    Tomorrow, 22 August, Thursday

    Time Temperature Precipitation Wind Pressure Humidity
    00:00 +22°C° 0 mm 1 mps 750 mmHg 82%
    01:00 +21°C° 0 mm 1 mps 750 mmHg 83%
    02:00 +21°C° 0 mm 1 mps 750 mmHg 84%
    03:00 +21°C° 0 mm 1 mps 750 mmHg 86%
    04:00 +20°C° 0 mm 1 mps 749 mmHg 86%
    05:00 +20°C° 0 mm 1 mps 749 mmHg 87%
    06:00 +20°C° 0 mm 1 mps 749 mmHg 88%
    07:00 +22°C° 0 mm 1 mps 749 mmHg 82%
    08:00 +23°C° 0 mm 1 mps 749 mmHg 76%
    09:00 +25°C° 0 mm 1 mps 749 mmHg 71%
    10:00 +26°C° 0 mm 1 mps 749 mmHg 67%
    11:00 +27°C° 0 mm 1 mps 749 mmHg 62%
    12:00 +28°C° 0 mm 1 mps 749 mmHg 58%
    13:00 +28°C° 0 mm 1 mps 748 mmHg 56%
    14:00 +29°C° 0 mm 1 mps 748 mmHg 54%
    15:00 +29°C° 0 mm 1 mps 748 mmHg 52%
    16:00 +29°C° 0 mm 1 mps 748 mmHg 55%
    17:00 +28°C° 0 mm 1 mps 748 mmHg 58%
    18:00 +28°C° 0 mm 1 mps 748 mmHg 61%
    19:00 +26°C° 0.1 mm 2 mps 748 mmHg 67%
    20:00 +25°C° 0.1 mm 4 mps 749 mmHg 73%
    21:00 +22°C° 0.1 mm 5 mps 749 mmHg 79%
    22:00 +21°C° 0 mm 5 mps 749 mmHg 82%
    23:00 +20°C° 0 mm 5 mps 749 mmHg 86%

    Day after tomorrow, 23 August, Friday

    Time Temperature Precipitation Wind Pressure Humidity
    00:00 +17°C° 0 mm 6 mps 750 mmHg 89%
    01:00 +17°C° 0 mm 6 mps 750 mmHg 88%
    02:00 +16°C° 0 mm 6 mps 750 mmHg 87%
    03:00 +16°C° 0 mm 5 mps 751 mmHg 85%
    04:00 +15°C° 0 mm 5 mps 751 mmHg 86%
    05:00 +15°C° 0 mm 5 mps 751 mmHg 87%
    06:00 +15°C° 0 mm 5 mps 751 mmHg 88%
    07:00 +15°C° 0 mm 5 mps 751 mmHg 83%
    08:00 +16°C° 0 mm 5 mps 752 mmHg 79%
    09:00 +17°C° 0 mm 5 mps 752 mmHg 74%
    10:00 +19°C° 0 mm 5 mps 752 mmHg 70%
    11:00 +20°C° 0 mm 5 mps 752 mmHg 66%
    12:00 +21°C° 0 mm 5 mps 752 mmHg 63%
    13:00 +22°C° 0 mm 5 mps 752 mmHg 61%
    14:00 +22°C° 0 mm 5 mps 752 mmHg 59%
    15:00 +22°C° 0 mm 5 mps 752 mmHg 58%
    16:00 +22°C° 0 mm 4 mps 752 mmHg 61%
    17:00 +21°C° 0 mm 4 mps 752 mmHg 64%
    18:00 +20°C° 0 mm 3 mps 752 mmHg 67%
    19:00 +19°C° 0 mm 3 mps 752 mmHg 70%
    20:00 +18°C° 0 mm 3 mps 752 mmHg 73%
    21:00 +17°C° 0 mm 3 mps 752 mmHg 76%
    22:00 +16°C° 0 mm 3 mps 752 mmHg 78%
    23:00 +16°C° 0 mm 3 mps 752 mmHg 80%

    24 August, Saturday

    Time Temperature Precipitation Wind Pressure Humidity
    00:00 +14°C° 0 mm 3 mps 752 mmHg 82%
    01:00 +14°C° 0 mm 3 mps 752 mmHg 82%
    02:00 +14°C° 0 mm 2 mps 752 mmHg 82%
    03:00 +14°C° 0 mm 2 mps 752 mmHg 82%
    04:00 +14°C° 0 mm 2 mps 752 mmHg 82%
    05:00 +14°C° 0 mm 2 mps 752 mmHg 83%
    06:00 +13°C° 0 mm 2 mps 753 mmHg 83%
    07:00 +15°C° 0 mm 2 mps 753 mmHg 77%
    08:00 +17°C° 0 mm 2 mps 753 mmHg 71%
    09:00 +19°C° 0 mm 2 mps 753 mmHg 65%
    10:00 +20°C° 0 mm 2 mps 753 mmHg 59%
    11:00 +21°C° 0 mm 2 mps 753 mmHg 53%
    12:00 +23°C° 0 mm 2 mps 753 mmHg 48%
    13:00 +24°C° 0 mm 2 mps 753 mmHg 46%
    14:00 +24°C° 0 mm 2 mps 752 mmHg 44%
    15:00 +25°C° 0 mm 2 mps 752 mmHg 42%
    16:00 +24°C° 0 mm 1 mps 752 mmHg 46%
    17:00 +24°C° 0 mm 1 mps 752 mmHg 50%
    18:00 +23°C° 0 mm 1 mps 751 mmHg 54%
    19:00 +22°C° 0 mm 1 mps 751 mmHg 57%
    20:00 +20°C° 0 mm 1 mps 751 mmHg 60%
    21:00 +17°C° 0 mm 0 mps 751 mmHg 63%
    22:00 +16°C° 0 mm 0 mps 751 mmHg 65%
    23:00 +16°C° 0 mm 0 mps 751 mmHg 66%

    25 August, Sunday

    Time Temperature Precipitation Wind Pressure Humidity
    00:00 +15°C° 0 mm 0 mps 751 mmHg 68%
    01:00 +16°C° 0 mm 1 mps 751 mmHg 69%
    02:00 +16°C° 0 mm 1 mps 751 mmHg 70%
    03:00 +15°C° 0 mm 1 mps 750 mmHg 71%
    04:00 +15°C° 0 mm 2 mps 750 mmHg 73%
    05:00 +15°C° 0 mm 2 mps 750 mmHg 75%
    06:00 +14°C° 0 mm 2 mps 750 mmHg 77%
    07:00 +16°C° 0 mm 2 mps 750 mmHg 73%
    08:00 +18°C° 0 mm 2 mps 750 mmHg 69%
    09:00 +20°C° 0 mm 2 mps 750 mmHg 65%
    10:00 +21°C° 0 mm 3 mps 750 mmHg 61%
    11:00 +22°C° 0 mm 3 mps 750 mmHg 57%
    12:00 +24°C° 0 mm 3 mps 750 mmHg 53%
    13:00 +24°C° 0 mm 3 mps 749 mmHg 52%
    14:00 +25°C° 0 mm 3 mps 749 mmHg 52%
    15:00 +25°C° 0 mm 4 mps 749 mmHg 51%
    16:00 +23°C° 0.1 mm 4 mps 749 mmHg 57%
    17:00 +24°C° 0.1 mm 3 mps 749 mmHg 62%
    18:00 +22°C° 0.1 mm 3 mps 749 mmHg 68%
    19:00 +20°C° 0.1 mm 3 mps 749 mmHg 74%
    20:00 +19°C° 0.1 mm 3 mps 749 mmHg 81%
    21:00 +17°C° 0.1 mm 3 mps 749 mmHg 88%
    22:00 +17°C° 0 mm 3 mps 750 mmHg 88%
    23:00 +16°C° 0 mm 3 mps 750 mmHg 89%

    26 August, Monday

    Time Temperature Precipitation Wind Pressure Humidity
    00:00 +14°C° 0 mm 3 mps 751 mmHg 89%
    01:00 +13°C° 0 mm 3 mps 751 mmHg 90%
    02:00 +13°C° 0 mm 3 mps 751 mmHg 90%
    03:00 +12°C° 0 mm 3 mps 752 mmHg 90%
    04:00 +12°C° 0 mm 3 mps 752 mmHg 92%
    05:00 +11°C° 0 mm 3 mps 752 mmHg 93%
    06:00 +11°C° 0 mm 3 mps 752 mmHg 94%
    07:00 +12°C° 0 mm 3 mps 753 mmHg 88%
    08:00 +13°C° 0 mm 3 mps 753 mmHg 82%
    09:00 +15°C° 0 mm 4 mps 754 mmHg 76%
    10:00 +17°C° 0 mm 4 mps 754 mmHg 70%
    11:00 +18°C° 0 mm 4 mps 754 mmHg 64%
    12:00 +19°C° 0 mm 4 mps 754 mmHg 59%
    13:00 +19°C° 0 mm 3 mps 754 mmHg 56%
    14:00 +20°C° 0 mm 3 mps 754 mmHg 53%
    15:00 +20°C° 0 mm 3 mps 754 mmHg 50%
    16:00 +20°C° 0 mm 3 mps 754 mmHg 53%
    17:00 +19°C° 0 mm 2 mps 754 mmHg 57%
    18:00 +19°C° 0 mm 2 mps 754 mmHg 60%
    19:00 +17°C° 0 mm 2 mps 754 mmHg 64%
    20:00 +16°C° 0 mm 2 mps 754 mmHg 67%
    21:00 +14°C° 0 mm 2 mps 754 mmHg 71%
    22:00 +14°C° 0 mm 2 mps 754 mmHg 72%
    23:00 +13°C° 0 mm 1 mps 754 mmHg 73%
    Show more